Flag for Comoros Weather past 2 weeks in Mutsamudu, Comoros

Now
82 °F

Passing clouds.


Feels Like: 87 °F
Forecast: 80 / 83 °F
Wind: 6 mph from Southeast

Location: Dzaoudzi / Pamanzi Mayotte

Current Time: Apr 26, 2015 at 10:27:23 PM

Latest Report: Apr 26, 2015 at 10:00 PM


Visibility: N/A

Pressure: 29.89 "Hg

Humidity: 70%

Dew point: 72 °F

Location of MutsamuduLocation

Historic Weather in Mutsamudu — Graph

°F

Mutsamudu temperature yesterday

Maximum temperature yesterday: 88 °F (at 8:30 AM)
Minimum temperature yesterday: 77 °F (at 6:00 AM)
Average temperature yesterday: 84 °F

Past Weeks' High & Low Weather Summary

 TemperatureHumidityPressure
High90 °F (Apr 12, 10:04 AM)94% (Apr 12, 12:30 AM)30.01 "Hg (Apr 12, 12:30 AM)
Low77 °F (Apr 12, 4:00 AM)59% (Apr 14, 11:00 AM)29.80 "Hg (Apr 14, 3:30 PM)
Average84 °F76%29.91 "Hg
* Reported Apr 11 8:00 PM — Apr 26 8:30 PM, Mutsamudu, Weather by CustomWeather, © 2015

Note: Actual official high and low records may vary slightly from our data, if they occured in-between our weather recording intervals... More about our weather records

Advertising

Mutsamudu weather history for previous 24 hours

 ConditionsComfort  
Time TempWeatherWind HumidityBarometerVisibility
8:30 PM
Sun, Apr 26
82 °FPassing clouds.7 mph74%29.89 "HgN/A
8:00 PM82 °FPassing clouds.9 mph74%29.89 "HgN/A
7:30 PM82 °FPassing clouds.6 mph74%29.86 "HgN/A
7:00 PM82 °FPassing clouds.8 mph74%29.86 "HgN/A
6:30 PM84 °FPassing clouds.8 mph74%29.83 "HgN/A
6:00 PM84 °FWarm.9 mph70%29.83 "HgN/A
5:30 PM84 °FScattered clouds.9 mph74%29.83 "HgN/A
5:00 PM86 °FPassing clouds.9 mph66%29.83 "HgN/A
4:30 PM88 °FPassing clouds.8 mph62%29.83 "HgN/A
4:00 PM88 °FPassing clouds.8 mph62%29.83 "HgN/A
3:30 PM88 °FPassing clouds.9 mph62%29.80 "HgN/A
3:00 PM88 °FScattered clouds.10 mph66%29.80 "HgN/A
2:30 PM88 °FScattered clouds.12 mph66%29.80 "HgN/A
2:00 PM88 °FScattered clouds.9 mph66%29.83 "HgN/A
1:30 PM88 °FPassing clouds.10 mph66%29.83 "HgN/A
1:00 PM88 °FPassing clouds.12 mph66%29.83 "HgN/A
12:30 PM88 °FPassing clouds.12 mph66%29.86 "HgN/A
12:00 PM88 °FPassing clouds.13 mph66%29.86 "HgN/A
11:30 AM88 °FPassing clouds.14 mph66%29.89 "HgN/A
11:00 AM88 °FPassing clouds.14 mph66%29.89 "HgN/A
10:30 AM88 °FPassing clouds.13 mph66%29.89 "HgN/A
10:00 AM88 °FPassing clouds.12 mph66%29.89 "HgN/A
9:30 AM88 °FPassing clouds.12 mph62%29.89 "HgN/A
9:06 AM88 °FPassing clouds.10 mph66%29.89 "HgN/A
8:00 AM86 °FPassing clouds.9 mph70%29.89 "HgN/A
7:30 AM86 °FScattered clouds.7 mph70%29.89 "HgN/A
7:04 AM84 °FScattered clouds.10 mph74%29.89 "HgN/A
6:30 AM82 °FScattered clouds.8 mph79%29.89 "HgN/A
6:00 AM82 °FPassing clouds.10 mph79%29.89 "HgN/A
5:30 AM82 °FPassing clouds.12 mph79%29.86 "HgN/A
5:00 AM82 °FPassing clouds.13 mph79%29.86 "HgN/A
4:30 AM82 °FPassing clouds.13 mph79%29.86 "HgN/A
4:00 AM82 °FPartly cloudy.12 mph74%29.86 "HgN/A
3:30 AM82 °FPartly cloudy.7 mph74%29.86 "HgN/A
3:00 AM81 °FWarm.8 mph79%29.89 "HgN/A
2:30 AM81 °FWarm.8 mph79%29.89 "HgN/A
2:00 AM81 °FWarm.6 mph79%29.89 "HgN/A
1:30 AM81 °FWarm.3 mph79%29.89 "HgN/A
1:00 AM81 °FWarm.5 mph79%29.89 "HgN/A
12:00 AM82 °FWarm.6 mph70%29.92 "HgN/A
11:30 PM
Sat, Apr 25
82 °FWarm.6 mph70%29.92 "HgN/A
11:00 PM82 °FWarm.8 mph70%29.95 "HgN/A
10:30 PM82 °FPassing clouds.7 mph70%29.95 "HgN/A
10:00 PM82 °FPassing clouds.7 mph70%29.95 "HgN/A
Weather by CustomWeather, © 2015

See weather overviewHow to use our weather pages